CW2693 Weather Reports


Display with metric or nautical units.
time (UTC)temp
F
wind
direction
speed
MPH
gust
MPH
rain 1hr
in
rain 24hr
in
rain mn
in
humidity
%
barometer
mb
20180224195825 76 190 0.0 4.0 0.00 0.00 0.00 75 1021.4
20180224195338 76 177 0.0 3.0 0.00 0.00 0.00 76 1021.4
20180224194828 76 195 0.0 3.0 0.00 0.00 0.00 76 1021.4
20180224194325 76 180 0.0 4.0 0.00 0.00 0.00 75 1021.4
20180224193835 76 121 0.0 4.0 0.00 0.00 0.00 76 1021.4
20180224193325 76 196 0.0 4.0 0.00 0.00 0.00 77 1021.4
20180224192834 76 194 0.0 2.0 0.00 0.00 0.00 77 1021.4
20180224192324 76 184 0.0 3.0 0.00 0.00 0.00 77 1021.5
20180224191837 76 203 0.0 3.0 0.00 0.00 0.00 76 1021.5
20180224191327 76 175 0.0 2.0 0.00 0.00 0.00 76 1021.6
20180224190837 76 194 0.0 4.0 0.00 0.00 0.00 77 1021.6
20180224190332 76 194 0.0 4.0 0.00 0.00 0.00 76 1021.7
20180224185841 76 182 0.0 4.0 0.00 0.00 0.00 75 1021.7
20180224185330 76 197 0.0 2.0 0.00 0.00 0.00 77 1021.8
20180224184843 76 197 0.0 4.0 0.00 0.00 0.00 76 1021.8
20180224184333 77 147 0.0 2.0 0.00 0.00 0.00 77 1021.9
20180224183843 77 105 0.0 5.0 0.00 0.00 0.00 77 1022.2
20180224183333 76 210 0.0 5.0 0.00 0.00 0.00 77 1022.3
20180224182826 76 190 0.0 5.0 0.00 0.00 0.00 77 1022.5
20180224182339 76 204 0.0 4.0 0.00 0.00 0.00 76 1022.5
20180224181833 76 191 0.0 3.0 0.00 0.00 0.00 76 1022.5
20180224181343 76 192 0.0 1.0 0.00 0.00 0.00 76 1022.5
20180224180833 77 194 0.0 3.0 0.00 0.00 0.00 77 1022.6
20180224180343 77 198 0.0 7.0 0.00 0.00 0.00 77 1022.6
20180224175833 76 203 0.0 7.0 0.00 0.00 0.00 77 1022.8
20180224175323 76 211 0.0 2.0 0.00 0.00 0.00 77 1022.8
20180224174836 76 208 0.0 2.0 0.00 0.00 0.00 77 1022.8
20180224174326 76 192 0.0 4.0 0.00 0.00 0.00 77 1022.9
20180224173840 76 187 0.0 4.0 0.00 0.00 0.00 77 1022.9
20180224173330 76 189 0.0 3.0 0.00 0.00 0.00 77 1023.0
20180224172840 76 194 0.0 3.0 0.00 0.00 0.00 77 1023.1
20180224172330 76 169 0.0 6.0 0.00 0.00 0.00 77 1023.2
20180224171840 76 190 0.0 6.0 0.00 0.00 0.00 77 1023.3
20180224171330 76 179 0.0 3.0 0.00 0.00 0.00 77 1023.3
20180224170843 77 188 0.0 3.0 0.00 0.00 0.00 77 1023.3
20180224170331 76 177 0.0 3.0 0.00 0.00 0.00 78 1023.4
20180224165824 76 188 0.0 4.0 0.00 0.00 0.00 78 1023.5
20180224165337 76 214 0.0 4.0 0.00 0.00 0.00 77 1023.5
20180224164827 76 204 0.0 2.0 0.00 0.00 0.00 78 1023.6
20180224164337 76 184 0.0 3.0 0.00 0.00 0.00 77 1023.7
20180224163827 76 216 0.0 6.0 0.00 0.00 0.00 76 1023.9
20180224163337 76 188 0.0 6.0 0.00 0.00 0.00 76 1023.9
20180224162827 76 211 0.0 6.0 0.00 0.00 0.00 76 1023.9
20180224162337 76 212 0.0 6.0 0.00 0.00 0.00 75 1024.0
20180224161827 76 192 0.0 6.0 0.00 0.00 0.00 76 1024.1
20180224161341 76 200 0.0 7.0 0.00 0.00 0.00 77 1024.1
20180224160831 76 188 0.0 7.0 0.00 0.00 0.00 77 1024.2
20180224160341 76 215 0.0 7.0 0.00 0.00 0.00 76 1024.2
20180224155831 76 187 0.0 7.0 0.00 0.00 0.00 77 1024.2
20180224155341 76 186 0.0 6.0 0.00 0.00 0.00 77 1024.3
20180224154831 76 207 0.0 2.0 0.00 0.00 0.00 77 1024.3
20180224154341 76 205 0.0 7.0 0.00 0.00 0.00 77 1024.3
20180224153833 76 176 0.0 7.0 0.00 0.00 0.00 77 1024.3
20180224153328 76 165 0.0 4.0 0.00 0.00 0.00 77 1024.3
20180224152840 76 198 0.0 7.0 0.00 0.00 0.00 78 1024.3
20180224152330 76 209 0.0 7.0 0.00 0.00 0.00 77 1024.3
20180224151840 76 200 0.0 5.0 0.00 0.00 0.00 77 1024.4
20180224151330 76 187 0.0 5.0 0.00 0.00 0.00 77 1024.4
20180224150840 76 178 0.0 2.0 0.00 0.00 0.00 77 1024.4
20180224150331 76 227 0.0 3.0 0.00 0.00 0.00 77 1024.4
20180224145840 76 191 0.0 3.0 0.00 0.00 0.00 77 1024.3
20180224145330 76 179 0.0 3.0 0.00 0.00 0.00 77 1024.3
20180224144826 77 158 0.0 7.0 0.00 0.00 0.00 76 1024.3
20180224144336 77 182 0.0 7.0 0.00 0.00 0.00 76 1024.3
20180224143826 76 208 0.0 2.0 0.00 0.00 0.00 77 1024.3
20180224143336 76 194 0.0 3.0 0.00 0.00 0.00 77 1024.3
20180224142826 76 229 0.0 7.0 0.00 0.00 0.00 77 1024.2
20180224142336 75 212 1.0 7.0 0.00 0.00 0.00 77 1024.2
20180224141825 75 161 0.0 3.0 0.00 0.00 0.00 78 1024.3
20180224141335 75 200 0.0 6.0 0.00 0.00 0.00 78 1024.3
20180224140829 75 194 0.0 6.0 0.00 0.00 0.00 78 1024.2
20180224140340 75 210 0.0 7.0 0.00 0.00 0.00 78 1024.2
20180224135828 76 204 0.0 7.0 0.00 0.00 0.00 77 1024.2
20180224135338 76 189 0.0 1.0 0.00 0.00 0.00 78 1024.1
20180224134828 76 198 0.0 4.0 0.00 0.00 0.00 78 1024.1
20180224134338 76 165 0.0 3.0 0.00 0.00 0.00 78 1024.1
20180224133828 75 198 0.0 11.0 0.00 0.00 0.00 78 1024.2
20180224133339 75 180 1.0 11.0 0.00 0.00 0.00 78 1024.2
20180224132828 75 181 1.0 7.0 0.00 0.00 0.00 78 1024.1
20180224132341 75 213 0.0 4.0 0.00 0.00 0.00 78 1024.2
20180224131830 75 215 0.0 5.0 0.00 0.00 0.00 79 1024.1
20180224131343 75 160 0.0 6.0 0.00 0.00 0.00 79 1024.1
20180224130832 75 168 0.0 6.0 0.00 0.00 0.00 79 1023.9
20180224130343 75 178 0.0 6.0 0.00 0.00 0.00 79 1024.0
20180224125832 75 188 0.0 2.0 0.00 0.00 0.00 80 1023.9
20180224125342 75 200 0.0 7.0 0.00 0.00 0.00 80 1023.8
20180224124831 74 176 1.0 9.0 0.00 0.00 0.00 80 1023.9
20180224124328 74 197 1.0 9.0 0.00 0.00 0.00 80 1023.8
20180224123838 74 190 1.0 8.0 0.00 0.00 0.00 81 1023.7
20180224123329 74 196 0.0 7.0 0.00 0.00 0.00 81 1023.8
20180224122837 74 236 0.0 10.0 0.00 0.00 0.00 81 1023.7
20180224122330 74 181 1.0 11.0 0.00 0.00 0.00 81 1023.7
20180224121842 74 194 0.0 7.0 0.00 0.00 0.00 81 1023.7
20180224121332 73 191 0.0 7.0 0.00 0.00 0.00 81 1023.7
20180224120845 73 165 0.0 7.0 0.00 0.00 0.00 82 1023.7
20180224120333 73 184 0.0 2.0 0.00 0.00 0.00 82 1023.7
20180224115826 73 235 0.0 7.0 0.00 0.00 0.00 82 1023.6
20180224115336 73 169 1.0 11.0 0.00 0.00 0.00 82 1023.6
20180224114825 73 179 1.0 11.0 0.00 0.00 0.00 82 1023.6
20180224114335 74 197 0.0 8.0 0.00 0.00 0.00 82 1023.5
20180224113825 74 209 2.0 8.0 0.00 0.00 0.00 82 1023.5
20180224113337 74 205 0.0 5.0 0.00 0.00 0.00 82 1023.5
20180224112826 74 194 0.0 9.0 0.00 0.00 0.00 82 1023.5
20180224112339 74 193 0.0 10.0 0.00 0.00 0.00 82 1023.4
20180224111833 74 203 1.0 10.0 0.00 0.00 0.00 82 1023.4
20180224111324 73 173 0.0 7.0 0.00 0.00 0.00 82 1023.3
20180224110834 73 192 0.0 8.0 0.00 0.00 0.00 82 1023.3
20180224110325 73 190 0.0 9.0 0.00 0.00 0.00 82 1023.3
20180224105834 73 198 1.0 8.0 0.00 0.00 0.00 82 1023.2
20180224105324 73 209 0.0 7.0 0.00 0.00 0.00 82 1023.2
20180224104834 73 171 0.0 6.0 0.00 0.00 0.00 82 1023.2
20180224104324 73 212 0.0 7.0 0.00 0.00 0.00 82 1023.2
20180224103836 73 195 0.0 7.0 0.00 0.00 0.00 82 1023.1
20180224103334 73 209 0.0 7.0 0.00 0.00 0.00 82 1023.1
20180224102844 73 162 0.0 8.0 0.00 0.00 0.00 82 1023.1
20180224102333 73 192 0.0 8.0 0.00 0.00 0.00 82 1023.1
20180224101843 73 185 0.0 13.0 0.00 0.00 0.00 82 1023.1
20180224101333 73 201 0.0 13.0 0.00 0.00 0.00 82 1023.1
20180224100844 73 156 0.0 12.0 0.00 0.00 0.00 82 1023.1
20180224100334 73 195 0.0 12.0 0.00 0.00 0.00 83 1023.0
20180224095845 73 170 2.0 12.0 0.00 0.00 0.00 83 1023.0
20180224095336 73 202 1.0 10.0 0.00 0.00 0.00 83 1022.9
20180224094826 73 192 0.0 15.0 0.00 0.00 0.00 83 1022.9
20180224094339 73 208 1.0 11.0 0.00 0.00 0.00 83 1023.0
20180224093828 74 205 0.0 10.0 0.00 0.00 0.00 82 1022.9
20180224093338 73 147 1.0 10.0 0.00 0.00 0.00 82 1022.9
20180224092828 73 120 1.0 12.0 0.00 0.00 0.00 82 1022.9
20180224092337 73 121 2.0 12.0 0.00 0.00 0.00 82 1023.0
20180224091826 73 180 1.0 10.0 0.00 0.00 0.00 82 1023.0
20180224091339 73 198 1.0 9.0 0.00 0.00 0.00 82 1023.0
20180224090834 73 181 1.0 9.0 0.00 0.00 0.00 82 1023.0
20180224090344 73 121 1.0 6.0 0.00 0.00 0.00 82 1023.0
20180224085834 73 121 0.0 10.0 0.00 0.00 0.00 82 1023.1
20180224085343 73 184 0.0 10.0 0.00 0.00 0.00 83 1023.1
20180224084832 73 183 0.0 8.0 0.00 0.00 0.00 83 1023.1
20180224084343 73 179 1.0 8.0 0.00 0.00 0.00 83 1023.1
20180224083832 73 134 0.0 9.0 0.00 0.00 0.00 82 1023.2
20180224083323 74 204 0.0 5.0 0.00 0.00 0.00 82 1023.2
20180224082839 74 179 0.0 12.0 0.00 0.00 0.00 82 1023.1
20180224082329 74 88 0.0 12.0 0.00 0.00 0.00 82 1023.2
20180224081838 74 233 1.0 11.0 0.00 0.00 0.00 82 1023.3
20180224081327 74 161 0.0 12.0 0.00 0.00 0.00 81 1023.3
20180224080837 74 125 0.0 12.0 0.00 0.00 0.00 81 1023.4
20180224080327 74 185 0.0 7.0 0.00 0.00 0.00 82 1023.5
20180224075839 73 197 1.0 5.0 0.00 0.00 0.00 82 1023.5
20180224075328 73 148 0.0 2.0 0.00 0.00 0.00 82 1023.6
20180224074839 73 175 0.0 2.0 0.00 0.00 0.00 82 1023.6
20180224074333 73 173 0.0 1.0 0.00 0.00 0.00 82 1023.6
20180224073843 73 175 0.0 1.0 0.00 0.00 0.00 82 1023.7
20180224073333 73 194 0.0 6.0 0.00 0.00 0.00 82 1023.8
20180224072843 73 160 0.0 4.0 0.00 0.00 0.00 82 1023.8
20180224072332 73 211 0.0 1.0 0.00 0.00 0.00 82 1023.8
20180224071843 73 186 0.0 3.0 0.00 0.00 0.00 82 1023.9
20180224071332 73 191 0.0 3.0 0.00 0.00 0.00 82 1024.0
20180224070842 73 189 0.0 7.0 0.00 0.00 0.00 82 1024.0
20180224070336 73 189 0.0 7.0 0.00 0.00 0.00 80 1024.1
20180224065825 73 176 0.0 10.0 0.00 0.00 0.00 81 1024.1
20180224065335 74 209 0.0 10.0 0.00 0.00 0.00 81 1024.2
20180224064824 74 192 0.0 5.0 0.00 0.00 0.00 81 1024.3
20180224064335 74 198 0.0 7.0 0.00 0.00 0.00 81 1024.3
20180224063824 74 164 0.0 8.0 0.00 0.00 0.00 81 1024.4
20180224063338 74 178 0.0 8.0 0.00 0.00 0.00 80 1024.5
20180224062827 74 157 1.0 10.0 0.00 0.00 0.00 80 1024.4
20180224062338 74 166 1.0 10.0 0.00 0.00 0.00 80 1024.5
20180224061832 74 174 1.0 8.0 0.00 0.00 0.00 80 1024.5
20180224061341 74 163 1.0 10.0 0.00 0.00 0.00 80 1024.5
20180224060830 74 155 1.0 10.0 0.00 0.00 0.00 81 1024.5
20180224060341 74 169 1.0 10.0 0.00 0.00 0.00 81 1024.5
20180224055831 74 188 0.0 10.0 0.00 0.00 0.00 81 1024.5
20180224055340 74 201 1.0 15.0 0.00 0.00 0.00 80 1024.5
20180224054830 74 175 0.0 11.0 0.00 0.00 0.00 81 1024.6
20180224054340 74 179 1.0 12.0 0.00 0.00 0.00 81 1024.6
20180224053834 74 184 1.0 9.0 0.00 0.00 0.00 81 1024.7
20180224053328 74 180 0.0 9.0 0.00 0.00 0.00 81 1024.8
20180224052837 74 175 1.0 10.0 0.00 0.00 0.00 81 1024.9
20180224052327 74 196 0.0 10.0 0.00 0.00 0.00 80 1024.9
20180224051837 74 166 0.0 7.0 0.00 0.00 0.00 80 1024.9
20180224051326 74 198 0.0 6.0 0.00 0.00 0.00 80 1025.1
20180224050836 74 190 0.0 7.0 0.00 0.00 0.00 80 1025.0
20180224050326 74 181 0.0 6.0 0.00 0.00 0.00 80 1025.0
20180224045838 74 182 0.0 9.0 0.00 0.00 0.00 80 1025.0
20180224045332 74 178 0.0 9.0 0.00 0.00 0.00 81 1025.0
20180224044841 74 180 0.0 2.0 0.00 0.00 0.00 81 1025.0
20180224044330 74 136 0.0 9.0 0.00 0.00 0.00 80 1024.9
20180224043841 74 213 0.0 9.0 0.00 0.00 0.00 80 1025.0
20180224043331 74 190 1.0 14.0 0.00 0.00 0.00 80 1025.0
20180224042840 74 197 0.0 14.0 0.00 0.00 0.00 81 1025.1
20180224042330 74 133 0.0 7.0 0.00 0.00 0.00 81 1025.2
20180224041842 74 194 0.0 6.0 0.00 0.00 0.00 81 1025.1
20180224041337 74 180 0.0 8.0 0.00 0.00 0.00 80 1025.1
20180224040826 74 186 0.0 8.0 0.00 0.00 0.00 81 1025.1
20180224040337 74 163 0.0 6.0 0.00 0.00 0.00 81 1025.1
20180224035826 74 199 0.0 1.0 0.00 0.00 0.00 81 1025.1
20180224035339 74 188 0.0 7.0 0.00 0.00 0.00 81 1025.2
20180224034829 74 175 0.0 9.0 0.00 0.00 0.00 81 1025.3
20180224034342 74 180 1.0 9.0 0.00 0.00 0.00 81 1025.3
20180224033832 74 185 1.0 8.0 0.00 0.00 0.00 81 1025.3
20180224033326 74 187 1.0 8.0 0.00 0.00 0.00 81 1025.3
20180224032836 74 194 0.0 8.0 0.00 0.00 0.00 81 1025.5
20180224032325 74 207 0.0 8.0 0.00 0.00 0.00 80 1025.6
20180224031834 74 171 1.0 7.0 0.00 0.00 0.00 80 1025.6
20180224031325 74 154 0.0 5.0 0.00 0.00 0.00 80 1025.6
20180224030834 74 138 0.0 9.0 0.00 0.00 0.00 80 1025.6
20180224030325 74 153 0.0 9.0 0.00 0.00 0.00 80 1025.6
20180224025835 74 155 0.0 7.0 0.00 0.00 0.00 80 1025.6
20180224025325 74 200 0.0 7.0 0.00 0.00 0.00 81 1025.6
20180224024839 74 195 0.0 11.0 0.00 0.00 0.00 80 1025.7
20180224024329 74 194 1.0 11.0 0.00 0.00 0.00 80 1025.6
20180224023838 74 178 0.0 9.0 0.00 0.00 0.00 81 1025.8
20180224023329 74 44 0.0 11.0 0.00 0.00 0.00 81 1025.8
20180224022842 74 198 0.0 11.0 0.00 0.00 0.00 81 1025.9
20180224022331 74 188 1.0 10.0 0.00 0.00 0.00 80 1025.9
20180224021841 74 152 0.0 7.0 0.00 0.00 0.00 80 1025.9
20180224021330 74 167 0.0 7.0 0.00 0.00 0.00 80 1025.9
20180224020826 74 183 0.0 5.0 0.00 0.00 0.00 80 1025.9
20180224020337 74 179 0.0 9.0 0.00 0.00 0.00 80 1025.8
20180224015826 74 184 0.0 7.0 0.00 0.00 0.00 80 1025.9
20180224015337 74 184 0.0 9.0 0.00 0.00 0.00 80 1025.9
20180224014827 74 178 1.0 9.0 0.00 0.00 0.00 80 1026.0
20180224014336 74 192 0.0 7.0 0.00 0.00 0.00 80 1026.0
20180224013826 74 166 1.0 7.0 0.00 0.00 0.00 80 1025.9
20180224013339 74 148 0.0 9.0 0.00 0.00 0.00 80 1026.0
20180224012829 74 146 0.0 9.0 0.00 0.00 0.00 80 1025.9
20180224012342 74 191 1.0 8.0 0.00 0.00 0.00 80 1026.0
20180224011832 74 149 0.0 9.0 0.00 0.00 0.00 80 1026.0
20180224011322 74 134 0.0 9.0 0.00 0.00 0.00 80 1026.0
20180224010835 74 209 0.0 6.0 0.00 0.00 0.00 80 1026.0
20180224010328 74 167 0.0 8.0 0.00 0.00 0.00 80 1026.0
20180224005838 74 182 1.0 8.0 0.00 0.00 0.00 80 1026.0
20180224005328 74 204 0.0 7.0 0.00 0.00 0.00 81 1025.9
20180224004838 74 189 1.0 9.0 0.00 0.00 0.00 80 1025.9
20180224004332 74 209 0.0 9.0 0.00 0.00 0.00 80 1025.9
20180224003840 74 171 0.0 5.0 0.00 0.00 0.00 80 1025.8
20180224003331 74 180 1.0 8.0 0.00 0.00 0.00 80 1025.8
20180224002844 74 184 2.0 8.0 0.00 0.00 0.00 80 1025.9
20180224002334 74 164 0.0 6.0 0.00 0.00 0.00 80 1025.8
20180224001824 74 209 0.0 10.0 0.00 0.00 0.00 80 1025.8
20180224001337 74 190 1.0 10.0 0.00 0.00 0.00 80 1025.8
20180224000827 74 211 0.0 8.0 0.00 0.00 0.00 80 1025.7
20180224000324 74 179 1.0 8.0 0.00 0.00 0.00 80 1025.7
20180223235837 74 171 0.0 3.0 0.00 0.00 0.00 80 1025.7
20180223235326 74 212 0.0 2.0 0.00 0.00 0.00 80 1025.7
20180223234836 74 175 0.0 2.0 0.00 0.00 0.00 79 1025.7
20180223234327 74 165 0.0 2.0 0.00 0.00 0.00 80 1025.7
20180223233837 74 186 0.0 2.0 0.00 0.00 0.00 79 1025.6
20180223233327 74 173 0.0 1.0 0.00 0.00 0.00 79 1025.7
20180223232837 74 161 0.0 2.0 0.00 0.00 0.00 79 1025.6
20180223232326 75 152 0.0 2.0 0.00 0.00 0.00 80 1025.6
20180223231839 75 150 0.0 1.0 0.00 0.00 0.00 80 1025.7
20180223231329 75 173 0.0 3.0 0.00 0.00 0.00 79 1025.7
20180223230839 75 192 0.0 0.0 0.00 0.00 0.00 79 1025.7
20180223230329 75 200 0.0 1.0 0.00 0.00 0.00 79 1025.7
20180223225822 75 183 0.0 1.0 0.00 0.00 0.00 79 1025.8
20180223225335 75 132 0.0 1.0 0.00 0.00 0.00 79 1025.9
20180223224825 75 166 0.0 1.0 0.00 0.00 0.00 78 1025.8
20180223224338 75 196 0.0 0.0 0.00 0.00 0.00 78 1025.8
20180223223832 75 186 0.0 0.0 0.00 0.00 0.00 78 1025.8
20180223223343 76 175 0.0 0.0 0.00 0.00 0.00 78 1025.9
20180223222833 76 196 0.0 1.0 0.00 0.00 0.00 78 1025.9
20180223222343 76 184 0.0 3.0 0.00 0.00 0.00 78 1025.8
20180223221832 76 175 0.0 3.0 0.00 0.00 0.00 78 1025.8
20180223221343 76 182 0.0 2.0 0.00 0.00 0.00 78 1025.7
20180223220833 75 157 0.0 2.0 0.00 0.00 0.00 77 1025.7
20180223220343 76 212 0.0 1.0 0.00 0.00 0.00 78 1025.7
20180223215833 76 177 0.0 1.0 0.00 0.00 0.00 77 1025.7
20180223215327 76 165 0.0 1.0 0.00 0.00 0.00 78 1025.6
20180223214837 76 167 0.0 1.0 0.00 0.00 0.00 77 1025.6
20180223214327 76 189 0.0 1.0 0.00 0.00 0.00 77 1025.6
20180223213837 76 189 0.0 1.0 0.00 0.00 0.00 77 1025.7
20180223213327 76 167 0.0 1.0 0.00 0.00 0.00 77 1025.7
20180223212836 76 206 0.0 1.0 0.00 0.00 0.00 76 1025.7
20180223212327 76 147 0.0 1.0 0.00 0.00 0.00 76 1025.7
20180223211837 76 151 0.0 1.0 0.00 0.00 0.00 77 1025.8
20180223211331 76 191 0.0 1.0 0.00 0.00 0.00 76 1025.7
20180223210841 76 161 0.0 1.0 0.00 0.00 0.00 77 1025.7
20180223210331 76 181 0.0 3.0 0.00 0.00 0.00 77 1025.7
20180223205844 76 150 0.0 3.0 0.00 0.00 0.00 77 1025.7
20180223205333 76 171 0.0 2.0 0.00 0.00 0.00 76 1025.7
20180223204824 76 200 0.0 2.0 0.00 0.00 0.00 76 1025.8
20180223204337 76 180 0.0 1.0 0.00 0.00 0.00 75 1025.8
20180223203827 76 214 0.0 2.0 0.00 0.00 0.00 75 1025.8
20180223203326 76 184 0.0 2.0 0.00 0.00 0.00 74 1025.9
20180223202835 76 175 0.0 3.0 0.00 0.00 0.00 75 1025.9
20180223202325 76 180 0.0 3.0 0.00 0.00 0.00 75 1025.9
20180223201835 76 192 0.0 3.0 0.00 0.00 0.00 75 1025.9
20180223201325 77 155 0.0 3.0 0.00 0.00 0.00 76 1025.9
20180223200835 77 167 0.0 3.0 0.00 0.00 0.00 75 1025.9
20180223200325 77 165 0.0 1.0 0.00 0.00 0.00 75 1026.0